Weather History for Buffalo, WY

Change the Weather History Date:

Wednesday, May 29, 2013

  Actual Average Record
Temperature  
Mean Temperature 53 °F 55 °F  
Max Temperature 58 °F 67 °F 83 °F (2003)
Min Temperature 47 °F 43 °F 33 °F (2012)
Degree Days  
Heating Degree Days 12 10  
Month to date heating degree days 288 390  
Since 1 July heating degree days 6993 7234  
Cooling Degree Days 0 0  
Month to date cooling degree days 10 0  
Year to date cooling degree days 10 0  
Growing Degree Days 2 (Base 50)    
Moisture  
Dew Point 47 °F    
Average Humidity 85    
Maximum Humidity 93    
Minimum Humidity 77    
Precipitation  
Precipitation 0.15 in 0.08 in 2.02 in (2011)
Month to date precipitation 1.55 2.36  
Year to date precipitation 3.07 5.35  
Sea Level Pressure  
Sea Level Pressure 29.61 in    
Wind  
Wind Speed 11 mph (NNW)    
Max Wind Speed 28 mph    
Max Gust Speed 38 mph    
Visibility 9 miles    
Events Rain , Thunderstorm    
T = Trace of Precipitation, MM = Missing Value Source: NWS Daily Summary

Daily Weather History Graph

Daily Weather History Graph

Search for Another Location

Airport:

Trip Planner

Search our weather history database for the weather conditions in past years. The results will help you decide how hot, cold, wet, or windy it might be!

Date:

Astronomy

May. 29, 2013 Rise Set
Actual Time 5:27 AM MDT 8:41 PM MDT
Civil Twilight 4:51 AM MDT 9:17 PM MDT
Nautical Twilight 4:05 AM MDT 10:03 PM MDT
Astronomical Twilight 3:09 AM MDT 11:00 PM MDT
Moon 12:00 AM MDT (5/29) 10:36 AM MDT (5/29)
Length of Visible Light 16h 25m
Length of Day
15h 14m
Waning Gibbous, 72% of the Moon is Illuminated
May 29
Waning Gibbous
May 31
Last Quarter
Jun 8
New
Jun 16
First Quarter
Jun 23
Full

Hourly Weather History & Observations

Time (MDT) Temp. Dew Point Humidity Pressure Visibility Wind Dir Wind Speed Gust Speed Precip Events Conditions
12:53 AM 52.0 °F 46.0 °F 80% 29.60 in 10.0 mi NNW 11.5 mph - 0.00 in   Mostly Cloudy
1:53 AM 48.9 °F 45.0 °F 86% 29.57 in 10.0 mi North 6.9 mph - N/A   Clear
2:53 AM 46.9 °F 44.1 °F 90% 29.60 in 10.0 mi NW 5.8 mph - N/A   Mostly Cloudy
3:53 AM 50.0 °F 45.0 °F 83% 29.58 in 10.0 mi NW 9.2 mph - N/A   Overcast
4:53 AM 48.9 °F 45.0 °F 86% 29.57 in 10.0 mi North 5.8 mph - N/A   Mostly Cloudy
5:53 AM 46.9 °F 44.1 °F 90% 29.59 in 10.0 mi West 3.5 mph - N/A   Overcast
6:05 AM 48.2 °F 44.6 °F 87% 29.69 in 10.0 mi West 3.5 mph - N/A   Overcast
6:53 AM 50.0 °F 45.0 °F 83% 29.61 in 10.0 mi NNW 6.9 mph - N/A   Overcast
7:20 AM 48.2 °F 44.6 °F 87% 29.68 in 10.0 mi NW 11.5 mph - 0.01 in Rain Light Rain
7:53 AM 50.0 °F 46.0 °F 86% 29.59 in 10.0 mi NW 15.0 mph - 0.02 in   Overcast
8:53 AM 50.0 °F 46.9 °F 89% 29.60 in 4.0 mi NNW 5.8 mph - 0.02 in Rain Light Rain
9:06 AM 51.8 °F 48.2 °F 88% 29.67 in 8.0 mi NNW 8.1 mph - 0.01 in Rain Light Rain
9:53 AM 52.0 °F 48.9 °F 89% 29.57 in 10.0 mi NNW 11.5 mph - 0.01 in   Overcast
10:15 AM 55.4 °F 50.0 °F 82% 29.64 in 10.0 mi North 11.5 mph - N/A   Mostly Cloudy
10:46 AM 55.4 °F 50.0 °F 82% 29.64 in 10.0 mi North 10.4 mph - N/A   Scattered Clouds
10:53 AM 57.0 °F 50.0 °F 77% 29.55 in 10.0 mi North 10.4 mph - N/A   Scattered Clouds
11:02 AM 55.4 °F 48.2 °F 77% 29.65 in 10.0 mi North 9.2 mph - N/A   Mostly Cloudy
11:10 AM 55.4 °F 48.2 °F 77% 29.65 in 10.0 mi NNE 8.1 mph - N/A   Mostly Cloudy
11:26 AM 55.4 °F 48.2 °F 77% 29.65 in 10.0 mi North 8.1 mph - N/A   Overcast
11:42 AM 57.2 °F 50.0 °F 77% 29.65 in 10.0 mi NNE 11.5 mph - N/A Thunderstorm Overcast
11:53 AM 55.0 °F 48.0 °F 77% 29.55 in 10.0 mi NE 11.5 mph - N/A   Overcast
12:11 PM 53.6 °F 48.2 °F 82% 29.65 in 10.0 mi NE 8.1 mph - N/A Thunderstorm Overcast
12:44 PM 55.4 °F 48.2 °F 77% 29.65 in 10.0 mi NE 9.2 mph - 0.00 in   Overcast
12:53 PM 55.0 °F 48.9 °F 80% 29.56 in 10.0 mi East 6.9 mph - 0.00 in Thunderstorm Overcast
1:14 PM 51.8 °F 46.4 °F 82% 29.65 in 10.0 mi West 11.5 mph - 0.00 in Rain Light Rain
1:42 PM 53.6 °F 42.8 °F 67% 29.64 in 10.0 mi WNW 10.4 mph - 0.00 in   Overcast
1:53 PM 54.0 °F 44.1 °F 69% 29.56 in 10.0 mi WNW 10.4 mph - 0.00 in   Overcast
2:00 PM 53.6 °F 42.8 °F 67% 29.65 in 10.0 mi West 8.1 mph - N/A   Overcast
2:12 PM 51.8 °F 44.6 °F 76% 29.65 in 1.8 mi West 8.1 mph - 0.05 in Rain Rain
2:23 PM 50.0 °F 44.6 °F 82% 29.64 in 4.0 mi WNW 3.5 mph - 0.06 in Rain Light Rain
2:53 PM 51.1 °F 46.0 °F 83% 29.57 in 2.5 mi West 3.5 mph - 0.08 in Rain Rain
3:05 PM 51.8 °F 46.4 °F 82% 29.64 in 7.0 mi WSW 3.5 mph - 0.01 in Rain Light Rain
3:53 PM 52.0 °F 48.0 °F 86% 29.56 in 10.0 mi North 6.9 mph - 0.01 in Rain Light Rain
4:11 PM 53.6 °F 50.0 °F 88% 29.63 in 10.0 mi North 10.4 mph - 0.00 in Rain Light Rain
4:53 PM 52.0 °F 48.9 °F 89% 29.55 in 10.0 mi NNW 12.7 mph 25.3 mph 0.00 in   Overcast
5:18 PM 51.8 °F 48.2 °F 88% 29.61 in 10.0 mi NNW 15.0 mph 25.3 mph N/A   Overcast
5:53 PM 52.0 °F 48.0 °F 86% 29.54 in 10.0 mi North 20.7 mph 26.5 mph N/A   Overcast
6:18 PM 51.8 °F 46.4 °F 82% 29.61 in 10.0 mi North 26.5 mph 38.0 mph N/A   Overcast
6:26 PM 51.8 °F 46.4 °F 82% 29.61 in 10.0 mi North 21.9 mph 38.0 mph N/A   Overcast
6:53 PM 51.1 °F 46.9 °F 86% 29.56 in 10.0 mi North 17.3 mph 26.5 mph N/A   Overcast
7:22 PM 50.0 °F 46.4 °F 87% 29.64 in 10.0 mi North 23.0 mph 26.5 mph N/A   Overcast
7:53 PM 50.0 °F 45.0 °F 83% 29.58 in 10.0 mi NNW 19.6 mph 27.6 mph N/A   Overcast
8:53 PM 50.0 °F 46.0 °F 86% 29.58 in 10.0 mi NNW 15.0 mph 24.2 mph N/A   Overcast
9:53 PM 48.9 °F 45.0 °F 86% 29.58 in 10.0 mi NNW 17.3 mph 27.6 mph N/A   Overcast
10:53 PM 48.0 °F 45.0 °F 89% 29.57 in 10.0 mi NNW 15.0 mph 25.3 mph 0.00 in Rain Light Rain
11:53 PM 48.0 °F 45.0 °F 89% 29.58 in 10.0 mi NNW 11.5 mph - 0.01 in   Overcast